Tracking 18852 objects as of 24-Nov-2017
HD Live streaming from Space Station
objects crossing your sky now

COSMOS 2214

Track COSMOS 2214 now!
10-day predictions
COSMOS 2214 is classified as:


NORAD ID: 22185
Int'l Code: 1992-068D
Perigee: 1,417.0 km
Apogee: 1,430.6 km
Inclination: 82.6 °
Period: 114.1 minutes
Semi major axis: 7794 km
RCS: 1.1573 m2 (large)
Launch date: October 20, 1992
Source: Commonwealth of Independent States (former USSR) (CIS)
Launch site: PLESETSK MISSILE AND SPACE COMPLEX (PKMTR)
aabbcc
Your satellite tracking list
Your tracking list is empty




NASA's NSSDC Master Catalog

Two Line Element Set (TLE):
1 22185U 92068D   17327.59103250 +.00000006 +00000-0 -26899-4 0  9993
2 22185 082.5916 183.0340 0008701 033.2559 023.7021 12.61517339155287
Source of the keplerian elements: AFSPC